When you browse on this site, cookies collect data to enhance your experience and personalize the content and advertising you see.
Visit our Privacy Policy to learn more. By continuing to use the site, you agree to this use of cookies and data.
  • In Hungary
  • List of Countries
  • For 7 days
  • Water Temperature
  • Satellite Maps
  • Weather Map
  • News
  • Weather Widgets
  • user-avatar
    Login

    Hourly Weather Dolinskaya

    Today, 18 November, Sunday

    Time Temperature Precipitation Wind Pressure Humidity
    00:00 -2°C° 0 mm 2 mps 756 mmHg 51%
    01:00 -2°C° 0 mm 2 mps 755 mmHg 52%
    02:00 -2°C° 0 mm 2 mps 755 mmHg 51%
    03:00 -3°C° 0 mm 2 mps 755 mmHg 51%
    04:00 -1°C° 0 mm 1 mps 755 mmHg 51%
    05:00 -1°C° 0 mm 1 mps 754 mmHg 51%
    06:00 0°C° 0 mm 1 mps 754 mmHg 50%
    07:00 0°C° 0 mm 1 mps 754 mmHg 49%
    08:00 0°C° 0 mm 1 mps 753 mmHg 48%
    09:00 +1°C° 0 mm 1 mps 753 mmHg 46%
    10:00 +1°C° 0 mm 0 mps 753 mmHg 44%
    11:00 +2°C° 0 mm 0 mps 753 mmHg 42%
    12:00 +2°C° 0 mm 0 mps 752 mmHg 42%
    13:00 +3°C° 0 mm 0 mps 752 mmHg 42%
    14:00 +3°C° 0 mm 0 mps 752 mmHg 42%
    15:00 +2°C° 0 mm 0 mps 751 mmHg 45%
    16:00 +1°C° 0 mm 0 mps 751 mmHg 48%
    17:00 +1°C° 0 mm 0 mps 751 mmHg 52%
    18:00 0°C° 0 mm 0 mps 751 mmHg 53%
    19:00 +1°C° 0 mm 1 mps 751 mmHg 55%
    20:00 +1°C° 0 mm 1 mps 751 mmHg 56%
    21:00 0°C° 0 mm 1 mps 751 mmHg 58%
    22:00 0°C° 0 mm 1 mps 750 mmHg 60%
    23:00 0°C° 0 mm 1 mps 750 mmHg 61%

    Tomorrow, 19 November, Monday

    Time Temperature Precipitation Wind Pressure Humidity
    00:00 0°C° 0 mm 1 mps 750 mmHg 61%
    01:00 -2°C° 0 mm 2 mps 750 mmHg 60%
    02:00 -3°C° 0 mm 2 mps 750 mmHg 60%
    03:00 -3°C° 0 mm 2 mps 750 mmHg 57%
    04:00 -3°C° 0 mm 2 mps 750 mmHg 55%
    05:00 -4°C° 0 mm 3 mps 750 mmHg 52%
    06:00 -2°C° 0 mm 3 mps 750 mmHg 50%
    07:00 -2°C° 0 mm 3 mps 750 mmHg 49%
    08:00 -3°C° 0 mm 4 mps 750 mmHg 47%
    09:00 -2°C° 0 mm 4 mps 750 mmHg 48%
    10:00 -1°C° 0 mm 4 mps 750 mmHg 49%
    11:00 0°C° 0 mm 5 mps 750 mmHg 51%
    12:00 0°C° 0 mm 5 mps 749 mmHg 55%
    13:00 0°C° 0 mm 5 mps 749 mmHg 59%
    14:00 +1°C° 0 mm 6 mps 748 mmHg 62%
    15:00 -1°C° 0.2 mm 6 mps 748 mmHg 66%
    16:00 -1°C° 0.2 mm 6 mps 748 mmHg 69%
    17:00 -2°C° 0.2 mm 6 mps 747 mmHg 72%
    18:00 -2°C° 0.4 mm 7 mps 747 mmHg 76%
    19:00 -2°C° 0.4 mm 8 mps 746 mmHg 79%
    20:00 -2°C° 0.4 mm 8 mps 746 mmHg 83%
    21:00 -2°C° 1.1 mm 8 mps 746 mmHg 85%
    22:00 -2°C° 1.1 mm 8 mps 745 mmHg 86%
    23:00 -1°C° 1.1 mm 8 mps 745 mmHg 88%

    Day after tomorrow, 20 November, Tuesday

    Time Temperature Precipitation Wind Pressure Humidity
    00:00 -1°C° 1.4 mm 8 mps 745 mmHg 90%
    01:00 -1°C° 1.4 mm 8 mps 744 mmHg 91%
    02:00 -2°C° 1.4 mm 8 mps 744 mmHg 92%
    03:00 -2°C° 0.9 mm 8 mps 744 mmHg 92%
    04:00 -2°C° 0.9 mm 8 mps 744 mmHg 92%
    05:00 -2°C° 0.9 mm 8 mps 744 mmHg 92%
    06:00 -2°C° 0.3 mm 7 mps 745 mmHg 92%
    07:00 -2°C° 0.3 mm 7 mps 745 mmHg 91%
    08:00 -2°C° 0.3 mm 7 mps 746 mmHg 91%
    09:00 -2°C° 0 mm 7 mps 746 mmHg 91%
    10:00 -2°C° 0 mm 6 mps 747 mmHg 91%
    11:00 -2°C° 0 mm 6 mps 747 mmHg 91%
    12:00 -2°C° 0 mm 6 mps 748 mmHg 90%
    13:00 -1°C° 0 mm 5 mps 748 mmHg 90%
    14:00 -1°C° 0 mm 5 mps 748 mmHg 90%
    15:00 -1°C° 0 mm 5 mps 748 mmHg 89%
    16:00 -2°C° 0 mm 5 mps 749 mmHg 89%
    17:00 -2°C° 0 mm 4 mps 749 mmHg 89%
    18:00 -2°C° 0 mm 4 mps 749 mmHg 89%
    19:00 -2°C° 0 mm 4 mps 749 mmHg 88%
    20:00 -3°C° 0 mm 4 mps 750 mmHg 87%
    21:00 -3°C° 0 mm 4 mps 750 mmHg 87%
    22:00 -2°C° 0 mm 3 mps 750 mmHg 87%
    23:00 -2°C° 0 mm 3 mps 750 mmHg 87%

    21 November, Wednesday

    Time Temperature Precipitation Wind Pressure Humidity
    00:00 -4°C° 0 mm 3 mps 750 mmHg 88%
    01:00 -4°C° 0 mm 3 mps 750 mmHg 88%
    02:00 -4°C° 0 mm 4 mps 751 mmHg 88%
    03:00 -4°C° 0 mm 4 mps 750 mmHg 88%
    04:00 -5°C° 0 mm 4 mps 750 mmHg 88%
    05:00 -5°C° 0 mm 4 mps 750 mmHg 88%
    06:00 -7°C° 0 mm 4 mps 750 mmHg 87%
    07:00 -7°C° 0 mm 4 mps 750 mmHg 87%
    08:00 -7°C° 0 mm 4 mps 750 mmHg 87%
    09:00 -5°C° 0 mm 4 mps 751 mmHg 86%
    10:00 -4°C° 0 mm 4 mps 751 mmHg 85%
    11:00 -3°C° 0 mm 4 mps 751 mmHg 84%
    12:00 -3°C° 0 mm 4 mps 750 mmHg 84%
    13:00 -2°C° 0 mm 4 mps 750 mmHg 84%
    14:00 -2°C° 0 mm 4 mps 750 mmHg 84%
    15:00 -3°C° 0 mm 4 mps 750 mmHg 86%
    16:00 -3°C° 0 mm 4 mps 750 mmHg 88%
    17:00 -4°C° 0 mm 4 mps 750 mmHg 90%
    18:00 -4°C° 0 mm 4 mps 750 mmHg 89%
    19:00 -5°C° 0 mm 5 mps 750 mmHg 88%
    20:00 -5°C° 0 mm 5 mps 750 mmHg 88%
    21:00 -4°C° 0 mm 4 mps 750 mmHg 88%
    22:00 -5°C° 0 mm 4 mps 751 mmHg 88%
    23:00 -5°C° 0 mm 4 mps 751 mmHg 89%

    22 November, Thursday

    Time Temperature Precipitation Wind Pressure Humidity
    00:00 -5°C° 0 mm 4 mps 751 mmHg 89%
    01:00 -5°C° 0 mm 4 mps 751 mmHg 88%
    02:00 -5°C° 0 mm 4 mps 751 mmHg 88%
    03:00 -7°C° 0 mm 4 mps 751 mmHg 88%
    04:00 -7°C° 0 mm 4 mps 751 mmHg 87%
    05:00 -7°C° 0 mm 4 mps 751 mmHg 87%
    06:00 -7°C° 0 mm 4 mps 751 mmHg 86%
    07:00 -7°C° 0 mm 4 mps 751 mmHg 85%
    08:00 -7°C° 0 mm 4 mps 751 mmHg 85%
    09:00 -5°C° 0 mm 4 mps 752 mmHg 82%
    10:00 -4°C° 0 mm 4 mps 752 mmHg 79%
    11:00 -3°C° 0 mm 4 mps 752 mmHg 76%
    12:00 -3°C° 0 mm 4 mps 752 mmHg 77%
    13:00 -3°C° 0 mm 4 mps 752 mmHg 77%
    14:00 -3°C° 0 mm 4 mps 752 mmHg 78%
    15:00 -4°C° 0 mm 4 mps 752 mmHg 82%
    16:00 -5°C° 0 mm 4 mps 752 mmHg 86%
    17:00 -6°C° 0 mm 3 mps 752 mmHg 90%
    18:00 -6°C° 0 mm 3 mps 752 mmHg 89%
    19:00 -6°C° 0 mm 3 mps 753 mmHg 89%
    20:00 -6°C° 0 mm 3 mps 753 mmHg 88%
    21:00 -6°C° 0 mm 3 mps 753 mmHg 88%
    22:00 -6°C° 0 mm 3 mps 754 mmHg 88%
    23:00 -7°C° 0 mm 3 mps 754 mmHg 88%

    23 November, Friday

    Time Temperature Precipitation Wind Pressure Humidity
    00:00 -7°C° 0 mm 3 mps 754 mmHg 88%
    01:00 -7°C° 0 mm 3 mps 754 mmHg 88%
    02:00 -7°C° 0 mm 3 mps 754 mmHg 88%
    03:00 -7°C° 0 mm 3 mps 754 mmHg 89%
    04:00 -7°C° 0 mm 3 mps 754 mmHg 89%
    05:00 -7°C° 0 mm 3 mps 755 mmHg 90%
    06:00 -7°C° 0 mm 3 mps 755 mmHg 90%
    07:00 -7°C° 0 mm 3 mps 755 mmHg 90%
    08:00 -7°C° 0 mm 3 mps 756 mmHg 90%
    09:00 -6°C° 0 mm 3 mps 756 mmHg 88%
    10:00 -5°C° 0 mm 3 mps 756 mmHg 85%
    11:00 -4°C° 0 mm 3 mps 756 mmHg 82%
    12:00 -4°C° 0 mm 3 mps 756 mmHg 82%
    13:00 -2°C° 0 mm 3 mps 756 mmHg 82%
    14:00 -2°C° 0 mm 3 mps 756 mmHg 82%
    15:00 -4°C° 0 mm 3 mps 756 mmHg 85%
    16:00 -5°C° 0 mm 3 mps 756 mmHg 89%
    17:00 -5°C° 0 mm 2 mps 756 mmHg 92%
    18:00 -5°C° 0 mm 2 mps 756 mmHg 93%
    19:00 -6°C° 0 mm 2 mps 756 mmHg 93%
    20:00 -6°C° 0 mm 2 mps 756 mmHg 93%
    21:00 -6°C° 0 mm 2 mps 756 mmHg 93%
    22:00 -4°C° 0 mm 1 mps 756 mmHg 92%
    23:00 -4°C° 0 mm 1 mps 756 mmHg 92%
    Show more